Regional Weather Roundup
Issued by NWS Little Rock, AR

Home | Current Version | Previous Version | Text Only | Print | Product List | Glossary On
Versions: 1 2 3 4 5 6 7 8 9 10 11 12 13 14 15 16 17 18 19 20 21 22 23 24 25 26 27 28 29 30 31 32 33 34 35 36 37 38 39 40 41 42 43 44 45 46 47 48 49 50
000
ASUS44 KLZK 052205
RWRLZK

WEATHER ROUNDUP FOR ARKANSAS
NATIONAL WEATHER SERVICE LITTLE ROCK AR
500 PM CDT TUE MAY 05 2015

NOTE: "FAIR" INDICATES FEW OR NO CLOUDS BELOW 12,000 FEET WITH NO
SIGNIFICANT WEATHER AND/OR OBSTRUCTIONS TO VISIBILITY.

ARZ001-003-010-029-052300-
NORTHWEST ARKANSAS

CITY           SKY/WX    TMP DP  RH WIND       PRES   REMARKS
FAYETTEVILLE   MOSUNNY   78  65  63 SE13G23   30.04F
FORT SMITH     PTSUNNY   82  53  36 SE13G20   29.99F
HARRISON       PTSUNNY   78  55  44 SE17      30.09F
BENTONVILLE    PTSUNNY   79  57  47 SE15G22   30.05F
ROGERS         PTSUNNY   80  55  42 S20G25    30.04F
SILOAM SPGS    CLOUDY    75  57  53 S8        30.04F
HIGHFILL       MOSUNNY   80  59  48 S13G20    30.03F
SPRINGDALE     PTSUNNY   81  54  39 S14G25    30.06F
$$

ARZ004-005-016-052300-
NORTH CENTRAL ARKANSAS

CITY           SKY/WX    TMP DP  RH WIND       PRES   REMARKS
BATESVILLE     SUNNY     84  54  34 SE9G17    30.09F
FLIPPIN        MOSUNNY   79  55  44 SE6       30.08S
MTN HOME       CLOUDY    79  56  45 S9        30.09F
$$

ARZ040-041-052300-
WEST CENTRAL ARKANSAS

CITY           SKY/WX    TMP DP  RH WIND       PRES   REMARKS
MENA           MOSUNNY   81  55  41 SE7       30.04F
MOUNT IDA      MOSUNNY   80  54  40 SE10      30.04F
$$

ARZ009-017-025-026-028-052300-
NORTHEAST ARKANSAS

CITY           SKY/WX    TMP DP  RH WIND       PRES   REMARKS
CORNING        LGT RAIN  86  54  32 S17       30.10F
JONESBORO      PTSUNNY   84  52  33 SE16      30.10F
NEWPORT        SUNNY     85  52  32 S14G20    30.10F
WALNUT RIDGE   SUNNY     84  52  32 S13       30.09F
BLYTHEVILLE    MOSUNNY   84  54  35 SE13G18   30.12F
NW BLYTHEVILLE PTSUNNY   86  52  30 SE14G21   30.11F
$$

ARZ022-023-033-042-044-052300-
CENTRAL ARKANSAS

CITY           SKY/WX    TMP DP  RH WIND       PRES   REMARKS
LITTLE ROCK    MOSUNNY   85  50  29 SE15G24   30.07F
N LITTLE ROCK  MOSUNNY   83  56  39 S14G21    30.07F
JACKSONVILLE   SUNNY     85  55  34 SE17      30.07F
SEARCY         PTSUNNY   85  57  38 SE14      30.10F
HOT SPRINGS    MOSUNNY   84  53  34 SE9       30.05F
RUSSELLVILLE   MOSUNNY   82  55  39 VRB5      30.05F
CLINTON        FAIR      82  57  42 E12       30.09F
$$

ARZ036-052300-
EAST ARKANSAS

CITY           SKY/WX    TMP DP  RH WIND       PRES   REMARKS
WEST MEMPHIS   SUNNY     83  53  35 S15       30.11F
$$

ARZ050-053-066-070-073-052300-
SOUTHWEST ARKANSAS

CITY           SKY/WX    TMP DP  RH WIND       PRES   REMARKS
ARKADELPHIA    FAIR      85  58  39 SE8       30.05F
CAMDEN         SUNNY     86  54  32 NE10G17   30.05F
TEXARKANA      PTSUNNY   79  58  48 SE9       30.03F
EL DORADO      SUNNY     84  56  38 SE10      30.06F
DE QUEEN       PTSUNNY   81  60  48 SE16G24   29.99F
$$

ARZ056-057-069-052300-
SOUTHEAST ARKANSAS

CITY           SKY/WX    TMP DP  RH WIND       PRES   REMARKS
PINE BLUFF     SUNNY     84  54  35 S17G25    30.08F
STUTTGART      MOSUNNY   86  52  30 SE15G21   30.09F
MONTICELLO     MOSUNNY   84  53  34 SE12G22   30.08F

$$





USA.gov is the U.S. government's official web portal to all federal, state and local government web resources and services.